Location: K�ln
(50.9455°N, 6.9544°E)
Time: 05:34:53
(UTC+01:00)

ISS - Pass Details

Date: 07 January 2018
Orbit: 401 x 406 km, 51.6° (Epoch: 17 January)

Event Time Altitude Azimuth Distance (km) Brightness Sun altitude
Exits shadow 05:58:09 41° 76° (ENE) 609 -2.6 -23.4°
Drops below altitude 10° 06:00:25 10° 84° (E) 1,468 0.0 -23.1°
Sets 06:02:30 0° 86° (E) 2,329 1.4 -22.7°
